Regional Weather Roundup
Issued by NWS

Home | Current Version | Previous Version | Graphics & Text | Print | Product List | Glossary On
Versions: 1 2 3 4 5 6 7 8 9 10 11 12 13 14 15 16 17 18 19 20 21 22 23 24 25 26 27 28 29 30 31 32 33 34 35 36 37 38 39 40 41 42 43 44 45 46 47 48 49 50
000
ASUS43 KTOP 210208
RWRKS

WEATHER ROUNDUP FOR KANSAS
NATIONAL WEATHER SERVICE GOODLAND KS
800 PM CST SAT DEC 20 2014

NOTE:  "FAIR" INDICATES FEW OR NO CLOUDS BELOW 12,000 FEET WITH NO
SIGNIFICANT WEATHER AND/OR OBSTRUCTIONS TO VISIBILITY.

KSZ001>006-013>018-027>032-041>047-210300-
NORTHWEST KANSAS

CITY           SKY/WX    TMP DP  RH WIND       PRES   REMARKS
GOODLAND       MOCLDY    31  26  82 S6        29.96S
HAYS           PTCLDY    37  30  75 SW8       30.01F
HILL CITY      CLOUDY    43  34  70 SW7       29.98F
RUSSELL        PTCLDY    39  37  92 S12       30.00F WCI  32
$$

KSZ061>065-074>080-084>089-210300-
SOUTHWEST KANSAS

CITY           SKY/WX    TMP DP  RH WIND       PRES   REMARKS
DODGE CITY     FOG       32  29  88 S7        30.03R VSB 1/4
ELKHART          N/A    N/A N/A N/A MISG        N/A
GARDEN CITY    FAIR      34  33  96 S12       30.00F WCI  25
GREAT BEND     PTCLDY    39  34  81 S13       30.05R WCI  32
LIBERAL        MOCLDY    39  32  75 SE7       30.03S
PRATT          PTCLDY    37  36  93 S9        30.08S
$$

KSZ066>073-081>083-090>101-210300-
SOUTHEAST KANSAS

CITY           SKY/WX    TMP DP  RH WIND       PRES   REMARKS
CHANUTE        CLEAR     36  33  89 S9        30.16R
COFFEYVILLE    CLEAR     37  32  82 S8        30.18R
HUTCHINSON     CLOUDY    43  37  79 S14       30.08F
MEDICINE LODGE   N/A     41  37  86 S7        30.09R
NEWTON         CLOUDY    43  34  70 S16       30.12R
PARSONS        CLEAR     38  33  82 S5        30.18R
WICHITA INTL   CLOUDY    44  37  76 S10       30.11S
WICHITA JABRA  CLOUDY    42  36  79 SW17      30.11S
WICHITA MCCONL CLOUDY    43  37  80 S14       30.12S
WINFIELD       CLOUDY    43  37  79 S14       30.15S
$$

KSZ007>012-019>026-033>040-048>060-102>105-210300-
NORTHEAST KANSAS

CITY           SKY/WX    TMP DP  RH WIND       PRES   REMARKS
CONCORDIA      MOCLDY    40  37  89 S20       30.01F WCI  30
EMPORIA        MOCLDY    35  33  92 S6        30.13R
LAWRENCE       PTCLDY    35  32  88 S8        30.13S
MANHATTAN      PTCLDY    39  36  89 SW7       30.07F
MARYSVILLE     PTCLDY    36  36 100 S5        30.05S FOG
OLATHE IND     CLEAR     35  33  92 S10       30.14S WCI  27
OLATHE EXE     CLEAR     35  33  92 S9        30.14S FOG
SALINA         PTCLDY    40  35  83 S7        30.07R
TOPEKA BILLARD PTCLDY    42  36  79 S5        30.12R
TOPEKA FORBES  FAIR      40  35  83 S8        30.10S
$$



USA.gov is the U.S. government's official web portal to all federal, state and local government web resources and services.